Location: San Gennaro Vesuviano
(40.8833°N, 14.5333°E)
Time: 22:19:50
(UTC+00:00)

Cosmos 405 Rocket - Pass Details

Date: 22 April 2021
Orbit: 489 x 553 km, 81.3° (Epoch: 10 May)

Event Time Altitude Azimuth Distance (km) Brightness Sun altitude
Rises 18:37:12 0° 358° (N) 2,712 6.8 -9.3°
Reaches altitude 10° 18:39:30 10° 6° (N) 1,806 5.7 -9.7°
Maximum altitude 18:43:15 39° 76° (ENE) 803 3.3 -10.3°
Enters shadow 18:46:27 13° 144° (SE) 1,591 4.6 -10.9°
